#timestamp,LO_Frequency,Hit,StdDev 
1589356815.7,286047002.3,N
1589356835.5,286047004.0,N
1589356855.3,286047004.3,N
1589356875.2,286047002.8,N
1589356895.0,286047000.3,N
1589356895.9,286047000.3,N
1589356915.8,286047002.8,N
1589356935.6,286047000.0,N
1589356955.4,286047004.1,N
1589356975.3,286047011.9,Y
1589356995.1,286047002.8,P
1589357015.9,286047002.5,N
1589357035.7,286047000.6,N
1589357055.5,286047015.2,Y
1589357075.4,286047016.4,P
1589357095.2,286047017.1,N
1589357115.0,286047017.5,N
1589357116.0,286047017.5,N
1589357135.8,286047019.4,Y
1589357155.6,286047008.2,P
1589357175.5,286047010.4,P
1589357195.3,286047010.5,P
1589357215.1,286047009.5,Y
1589357235.9,286047000.5,P
1589357255.7,286047002.5,N
1589357275.6,286046996.9,N
1589357295.4,286046994.6,N
1589357315.2,286046989.6,N
1589357335.1,286046986.7,N
1589357336.0,286046986.7,N
1589357355.8,286046984.9,N
1589357375.7,286046979.4,N
1589357395.5,286046980.1,N
1589357415.3,286046988.3,N
1589357435.2,286046984.7,N
1589357455.0,286046976.1,N
1589357455.9,286046976.1,N
1589357475.7,286046975.0,N
1589357495.6,286046971.3,N
1589357515.4,286046970.6,N
1589357535.3,286046968.9,N
1589357555.1,286046968.6,N
1589357556.0,286046968.6,N
1589357575.8,286046969.0,N
1589357595.7,286046966.6,N
1589357615.5,286046964.7,N
1589357635.4,286046965.6,N
1589357655.2,286046961.6,Y
1589357675.0,286046981.5,P
1589357675.9,286046981.5,P
1589357695.8,286046982.3,P
1589357715.6,286046982.8,Y
1589357735.5,286047000.2,P
1589357755.3,286047000.0,N
1589357775.1,286047000.1,N
1589357795.9,286047002.1,N
1589357815.7,286047002.1,N
1589357835.5,286047002.1,N
1589357855.4,286047003.6,N
1589357875.2,286047004.2,N
1589357895.1,286047003.5,N
1589357896.0,286047003.5,N
1589357915.8,286047004.1,N
1589357935.6,286047002.6,N
1589357955.5,286047002.6,N
1589357975.3,286047002.5,N
1589357995.2,286047001.4,N
1589358015.9,286047005.5,N
1589358035.7,286047007.3,N
1589358055.6,286047009.1,N
1589358075.4,286047004.8,N
1589358095.2,286047003.6,N
1589358115.1,286047003.4,N
1589358116.0,286047003.4,N
1589358135.8,286047003.7,N
1589358155.7,286047004.9,N
1589358175.5,286047005.9,N
1589358195.3,286047003.2,N
1589358215.2,286047003.2,N
1589358235.0,286047005.1,N
1589358235.9,286047005.1,N
1589358255.8,286047006.6,N
1589358275.6,286047004.6,N
1589358295.4,286047003.9,N
1589358315.3,286047005.5,Y
1589358335.1,286047001.7,P
1589358355.9,286047004.1,P
1589358375.7,286047001.8,N
1589358395.5,286047000.2,N
1589358415.4,286046998.2,N
1589358435.2,286047000.4,N
1589358455.0,286047004.1,N
1589358455.9,286047004.1,N
1589358475.8,286047003.7,N
1589358495.6,286047003.4,N
1589358515.5,286047003.5,N
1589358535.3,286047004.6,N
1589358555.1,286047007.0,Y
1589358575.9,286047004.0,P
1589358595.7,286047002.5,P
1589358615.6,286047001.0,N
1589358635.4,286047000.0,N
1589358655.2,286047002.4,N
1589358675.1,286047002.4,N
1589358676.0,286047002.4,N
1589358695.8,286047005.7,Y
1589358715.7,286047000.3,P
1589358735.5,286046999.4,N
1589358755.3,286047000.8,N
1589358775.2,286047001.1,N
1589358795.0,286046997.0,Y
1589358795.9,286046997.0,P
1589358815.7,286046999.2,N
1589358835.6,286046997.2,N
1589358855.4,286046997.6,N
1589358875.3,286046999.3,N
1589358895.1,286046998.7,N
1589358915.8,286046999.5,N
1589358935.7,286046997.6,N
1589358955.5,286046994.9,Y
1589358975.4,286046995.2,P
1589358995.2,286046995.4,N
1589359015.0,286046997.4,N
1589359015.9,286046997.4,N
1589359035.8,286046999.1,N
1589359055.6,286046999.6,N
1589359075.5,286046996.8,N
1589359095.3,286047000.3,N
1589359115.1,286046998.8,N
1589359135.9,286046996.6,N
1589359155.7,286046997.2,N
1589359175.5,286046997.8,N
1589359195.4,286046997.6,N
1589359215.2,286046995.2,Y
1589359235.1,286047000.8,P
1589359236.0,286047000.8,N
1589359255.8,286047000.6,N
1589359275.6,286047000.1,N
1589359295.5,286047000.3,N
1589359315.3,286046998.4,N
1589359335.2,286046999.4,N
1589359355.9,286046997.2,N
1589359375.7,286046995.5,Y
1589359395.6,286046996.0,P
1589359415.4,286046996.1,N
1589359435.2,286046996.1,N
1589359455.1,286046993.5,Y
1589359456.0,286046993.5,P
1589359475.8,286046999.5,N
1589359495.7,286046998.9,N
1589359515.5,286046996.9,N
1589359535.3,286046996.8,N
1589359555.2,286046999.2,N
1589359575.0,286046996.5,N
1589359575.9,286046996.5,N
1589359595.8,286046997.2,N
1589359615.6,286046995.0,Y
1589359635.4,286046999.0,P
1589359655.3,286046998.9,N
1589359675.1,286046996.7,P
1589359695.9,286046997.1,N
1589359715.7,286046998.0,N
1589359735.5,286046998.0,N
1589359755.4,286046997.1,Y
1589359775.2,286046997.1,P
1589359795.0,286046995.0,P
1589359796.0,286046995.0,P
1589359815.8,286046996.8,N
1589359835.6,286046998.7,N
1589359855.5,286047000.4,N
1589359875.3,286047000.6,N
1589359895.1,286047001.1,N
1589359915.9,286047004.3,N
1589359935.7,286047004.1,N
1589359955.6,286047003.4,N
1589359975.4,286047003.1,N
1589359995.2,286047004.9,N
1589360015.1,286047005.9,N
1589360016.0,286047005.9,N
1589360035.8,286047004.9,N
1589360055.7,286047007.5,N
1589360075.5,286047005.5,N
1589360095.3,286047007.6,N
1589360115.2,286047006.8,N
1589360135.0,286047009.1,N
1589360135.9,286047009.1,N
1589360155.7,286047007.4,N
1589360175.6,286047003.4,N
1589360195.4,286047005.1,N
1589360215.3,286047006.8,N
1589360235.1,286047008.7,N
1589360236.0,286047008.7,N
1589360255.8,286047007.0,N
1589360275.7,286047009.0,N
1589360295.5,286047008.4,N
1589360315.4,286047007.9,N
1589360335.2,286047005.3,N
1589360355.0,286047003.9,N
1589360355.9,286047003.9,N
1589360375.8,286047001.7,N
1589360395.6,286047005.2,N
